AA1779 KMIA-TFFF

Flight info

Callsign AA1779
Flight time N/A
Altitude 39000
Route KLADA2 BITAC Y290 HAGIT Y421 MEEGL DCT ILURI UA555 DUNTA/N0371F230 A555 EMOLA EMOLA2X
Aircraft A319/M-SDE3FGHIRWY/LB1

Departure

Time N/A
Airport Miami International Airport (KMIA)

Arrival

Time 2026-04-30 18:45
Airport Martinique Aimé Césaire International Airport (TFFF)
Time Latitude Longitude Altitude Speed Heading
2026-04-30 14:25 25.79791 -80.27309 20 ft 0 kts 327°
2026-04-30 15:12 25.79785 -80.27305 20 ft 4 kts 329°
2026-04-30 15:13 25.79736 -80.27287 19 ft 4 kts 21°
2026-04-30 15:14 25.79724 -80.27302 20 ft 0 kts 81°
2026-04-30 15:18 25.79726 -80.27289 20 ft 0 kts 81°
2026-04-30 17:39 16.98625 -64.27835 39034 ft 519 kts 123°
2026-04-30 17:42 16.81692 -63.96021 39031 ft 518 kts 123°
2026-04-30 17:43 16.72925 -63.79629 39013 ft 518 kts 123°
2026-04-30 17:44 16.62399 -63.59925 39020 ft 517 kts 123°
2026-04-30 17:47 16.46632 -63.30609 38999 ft 516 kts 123°
2026-04-30 17:48 16.34285 -63.07751 38997 ft 518 kts 123°
2026-04-30 17:49 16.26267 -62.95493 38999 ft 509 kts 136°
2026-04-30 17:50 16.16832 -62.84478 39003 ft 510 kts 136°
2026-04-30 17:52 16.02623 -62.67862 39016 ft 512 kts 136°
2026-04-30 17:54 15.81371 -62.43102 38989 ft 510 kts 136°
2026-04-30 17:55 15.71913 -62.32089 38050 ft 510 kts 136°
2026-04-30 17:56 15.62458 -62.21126 37054 ft 509 kts 135°
2026-04-30 17:57 15.55365 -62.12923 34962 ft 514 kts 134°
2026-04-30 17:58 15.48118 -62.04543 32136 ft 521 kts 134°
2026-04-30 17:59 15.38647 -61.93590 27170 ft 498 kts 135°
2026-04-30 18:00 15.29508 -61.83046 24959 ft 482 kts 135°
2026-04-30 18:00 15.22959 -61.75491 22444 ft 460 kts 134°
2026-04-30 18:01 15.18732 -61.70625 20871 ft 449 kts 134°
2026-04-30 18:02 15.12286 -61.63900 18585 ft 427 kts 147°
2026-04-30 18:02 15.04787 -61.59111 15301 ft 409 kts 149°
2026-04-30 18:03 14.97684 -61.54671 12023 ft 388 kts 149°
2026-04-30 18:04 14.91103 -61.50537 9970 ft 336 kts 148°
2026-04-30 18:05 14.83929 -61.46022 8817 ft 289 kts 148°
2026-04-30 18:06 14.77158 -61.41765 7250 ft 279 kts 147°
2026-04-30 18:07 14.70778 -61.37447 5610 ft 270 kts 132°
2026-04-30 18:08 14.66992 -61.33247 4340 ft 264 kts 132°
2026-04-30 18:09 14.62217 -61.28027 3256 ft 233 kts 141°
2026-04-30 18:10 14.56266 -61.27536 2521 ft 210 kts 182°
2026-04-30 18:11 14.50636 -61.28373 2009 ft 209 kts 212°
2026-04-30 18:11 14.49164 -61.32521 2013 ft 215 kts 262°
2026-04-30 18:12 14.48598 -61.37114 2013 ft 215 kts 261°
2026-04-30 18:13 14.48211 -61.40182 2014 ft 216 kts 261°
2026-04-30 18:13 14.47715 -61.44277 2008 ft 217 kts 265°
2026-04-30 18:14 14.49716 -61.46908 2012 ft 217 kts 354°
2026-04-30 18:15 14.52619 -61.44291 2031 ft 206 kts 85°
2026-04-30 18:15 14.53163 -61.39885 2015 ft 206 kts 84°
2026-04-30 18:16 14.53532 -61.36949 2015 ft 207 kts 84°
2026-04-30 18:16 14.53902 -61.34006 2015 ft 207 kts 84°
2026-04-30 18:17 14.54085 -61.32555 2016 ft 207 kts 84°
2026-04-30 18:17 14.54269 -61.31084 2015 ft 207 kts 84°
2026-04-30 18:17 14.54639 -61.28136 2014 ft 207 kts 84°
2026-04-30 18:18 14.54615 -61.26666 2008 ft 205 kts 108°
2026-04-30 18:18 14.53877 -61.25440 2011 ft 203 kts 140°
2026-04-30 18:18 14.52612 -61.24835 2011 ft 204 kts 172°
2026-04-30 18:18 14.51218 -61.25053 2011 ft 207 kts 205°
2026-04-30 18:19 14.50158 -61.26046 2007 ft 211 kts 239°
2026-04-30 18:19 14.49778 -61.27509 2025 ft 215 kts 264°
2026-04-30 18:19 14.49617 -61.29046 2013 ft 216 kts 262°
2026-04-30 18:19 14.49706 -61.30572 2008 ft 216 kts 293°
2026-04-30 18:20 14.50726 -61.31669 2009 ft 216 kts 339°
2026-04-30 18:20 14.52193 -61.31858 2021 ft 214 kts 12°
2026-04-30 18:20 14.53529 -61.31247 2013 ft 210 kts 43°
2026-04-30 18:20 14.54343 -61.30034 2011 ft 206 kts 75°
2026-04-30 18:21 14.54580 -61.28582 2015 ft 206 kts 85°
2026-04-30 18:21 14.54767 -61.27111 2016 ft 207 kts 85°
2026-04-30 18:21 14.54958 -61.25640 2014 ft 207 kts 84°
2026-04-30 18:21 14.55147 -61.24186 2013 ft 208 kts 84°
2026-04-30 18:22 14.55340 -61.22711 2013 ft 207 kts 84°
2026-04-30 18:22 14.55767 -61.19769 2010 ft 207 kts 82°
2026-04-30 18:22 14.56014 -61.18305 2010 ft 208 kts 82°
2026-04-30 18:23 14.56266 -61.16837 2012 ft 208 kts 82°
2026-04-30 18:23 14.56519 -61.15366 2013 ft 208 kts 82°
2026-04-30 18:23 14.56773 -61.13897 2014 ft 208 kts 82°
2026-04-30 18:23 14.57026 -61.12426 1963 ft 208 kts 81°
2026-04-30 18:24 14.57532 -61.09484 1504 ft 208 kts 82°
2026-04-30 18:24 14.57781 -61.08037 1230 ft 200 kts 81°
2026-04-30 18:24 14.58016 -61.06672 1008 ft 185 kts 81°
2026-04-30 18:25 14.58234 -61.05400 741 ft 174 kts 81°
2026-04-30 18:25 14.58628 -61.03118 309 ft 154 kts 78°
2026-04-30 18:25 14.58813 -61.02047 213 ft 156 kts 81°
2026-04-30 18:26 14.59209 -60.99703 1754 ft 180 kts 82°
2026-04-30 18:26 14.59443 -60.98332 1952 ft 200 kts 82°
2026-04-30 18:26 14.59686 -60.96909 1990 ft 201 kts 82°
2026-04-30 18:27 14.60091 -60.94553 2006 ft 199 kts 81°
2026-04-30 18:27 14.60332 -60.93143 2005 ft 200 kts 82°
2026-04-30 18:28 14.60820 -60.90316 2018 ft 199 kts 82°
2026-04-30 18:28 14.61061 -60.88909 2247 ft 200 kts 82°
2026-04-30 18:28 14.61529 -60.86086 2742 ft 199 kts 87°
2026-04-30 18:29 14.61150 -60.84760 2938 ft 197 kts 130°
2026-04-30 18:29 14.57399 -60.85360 3009 ft 208 kts 206°
2026-04-30 18:30 14.54739 -60.86380 3010 ft 204 kts 192°
2026-04-30 18:30 14.52015 -60.87270 3011 ft 206 kts 198°
2026-04-30 18:31 14.50700 -60.87879 3011 ft 207 kts 204°
2026-04-30 18:31 14.48250 -60.89475 3017 ft 210 kts 215°
2026-04-30 18:32 14.46107 -60.91539 3013 ft 213 kts 225°
2026-04-30 18:32 14.45180 -60.92730 3015 ft 213 kts 231°
2026-04-30 18:32 14.43678 -60.95380 3016 ft 214 kts 243°
2026-04-30 18:33 14.43115 -60.96805 3014 ft 215 kts 249°
2026-04-30 18:33 14.42393 -60.99809 3012 ft 216 kts 260°
2026-04-30 18:33 14.42166 -61.01347 3016 ft 217 kts 259°
2026-04-30 18:34 14.41938 -61.02887 3014 ft 217 kts 260°
2026-04-30 18:34 14.41610 -61.05983 3008 ft 217 kts 265°
2026-04-30 18:34 14.41564 -61.07536 3012 ft 217 kts 269°
2026-04-30 18:35 14.41600 -61.09094 3016 ft 217 kts 272°
2026-04-30 18:35 14.41716 -61.10626 3014 ft 217 kts 275°
2026-04-30 18:35 14.41918 -61.12175 3017 ft 217 kts 279°
2026-04-30 18:36 14.42574 -61.15229 3013 ft 219 kts 285°
2026-04-30 18:36 14.43019 -61.16727 3009 ft 218 kts 288°
2026-04-30 18:36 14.43949 -61.19702 3012 ft 218 kts 288°
2026-04-30 18:37 14.44413 -61.21186 3014 ft 218 kts 288°
2026-04-30 18:37 14.44965 -61.22637 3008 ft 218 kts 301°
2026-04-30 18:37 14.45946 -61.23836 3026 ft 223 kts 323°
2026-04-30 18:37 14.47290 -61.24599 3012 ft 221 kts 346°
2026-04-30 18:38 14.48796 -61.24698 3013 ft 216 kts 15°
2026-04-30 18:38 14.50146 -61.24090 3014 ft 211 kts 36°
2026-04-30 18:38 14.51388 -61.23272 3012 ft 211 kts 38°
2026-04-30 18:38 14.52561 -61.22367 3012 ft 211 kts 43°
2026-04-30 18:39 14.53654 -61.21368 3011 ft 209 kts 47°
2026-04-30 18:39 14.54643 -61.20294 3014 ft 208 kts 52°
2026-04-30 18:39 14.55543 -61.19129 3010 ft 207 kts 58°
2026-04-30 18:39 14.56106 -61.17784 2962 ft 205 kts 81°
2026-04-30 18:40 14.56357 -61.16342 2768 ft 204 kts 82°
2026-04-30 18:40 14.56602 -61.14896 2509 ft 205 kts 82°
2026-04-30 18:40 14.56850 -61.13455 2250 ft 201 kts 82°
2026-04-30 18:40 14.57088 -61.12076 2021 ft 189 kts 82°
2026-04-30 18:41 14.57310 -61.10784 1746 ft 176 kts 82°
2026-04-30 18:41 14.57515 -61.09589 1529 ft 163 kts 82°
2026-04-30 18:41 14.57707 -61.08470 1319 ft 154 kts 82°
2026-04-30 18:41 14.57889 -61.07410 1119 ft 147 kts 82°
2026-04-30 18:42 14.58066 -61.06387 925 ft 144 kts 82°
2026-04-30 18:42 14.58409 -61.04379 550 ft 142 kts 82°
2026-04-30 18:42 14.58581 -61.03376 361 ft 141 kts 82°
2026-04-30 18:45 14.59276 -61.00034 20 ft 0 kts 347°